Year,Month,Day,Hour,Minute,Value (Times are PST for temperature in C)
2014,06,03,00,00,14.50
2014,06,03,00,01,14.50
2014,06,03,00,02,14.40
2014,06,03,00,03,14.40
2014,06,03,00,04,14.40
2014,06,03,00,05,14.40
2014,06,03,00,06,14.40
2014,06,03,00,07,14.40
2014,06,03,00,08,14.30
2014,06,03,00,09,14.30
2014,06,03,00,10,14.30
2014,06,03,00,11,14.30
2014,06,03,00,12,14.30
2014,06,03,00,13,14.30
2014,06,03,00,14,14.20
2014,06,03,00,15,14.20
2014,06,03,00,16,14.20
2014,06,03,00,17,14.20
2014,06,03,00,18,14.20
2014,06,03,00,19,14.20
2014,06,03,00,20,14.20
2014,06,03,00,21,14.10
2014,06,03,00,22,14.10
2014,06,03,00,23,14.10
2014,06,03,00,24,14.00
2014,06,03,00,25,14.00
2014,06,03,00,26,14.00
2014,06,03,00,27,14.00
2014,06,03,00,28,13.90
2014,06,03,00,29,13.90
2014,06,03,00,30,13.90
2014,06,03,00,31,13.90
2014,06,03,00,32,13.90
2014,06,03,00,33,13.90
2014,06,03,00,34,13.90
2014,06,03,00,35,13.90
2014,06,03,00,36,13.90
2014,06,03,00,37,14.00
2014,06,03,00,38,14.00
2014,06,03,00,39,14.00
2014,06,03,00,40,14.00
2014,06,03,00,41,14.00
2014,06,03,00,42,13.90
2014,06,03,00,43,13.90
2014,06,03,00,44,13.90
2014,06,03,00,45,13.80
2014,06,03,00,46,13.80
2014,06,03,00,47,13.80
2014,06,03,00,48,13.70
2014,06,03,00,49,13.70
2014,06,03,00,50,13.70
2014,06,03,00,51,13.70
2014,06,03,00,52,13.70
2014,06,03,00,53,13.70
2014,06,03,00,54,13.70
2014,06,03,00,55,13.70
2014,06,03,00,56,13.60
2014,06,03,00,57,13.60
2014,06,03,00,58,13.60
2014,06,03,00,59,13.60
2014,06,03,01,00,13.60
2014,06,03,01,01,13.60
2014,06,03,01,02,13.60
2014,06,03,01,03,13.60
2014,06,03,01,04,13.60
2014,06,03,01,05,13.50
2014,06,03,01,06,13.50
2014,06,03,01,07,13.50
2014,06,03,01,08,13.50
2014,06,03,01,09,13.50
2014,06,03,01,10,13.40
2014,06,03,01,11,13.40
2014,06,03,01,12,13.40
2014,06,03,01,13,13.30
2014,06,03,01,14,13.30
2014,06,03,01,15,13.30
2014,06,03,01,16,13.30
2014,06,03,01,17,13.30
2014,06,03,01,18,13.30
2014,06,03,01,19,13.30
2014,06,03,01,20,13.30
2014,06,03,01,21,13.30
2014,06,03,01,22,13.30
2014,06,03,01,23,13.30
2014,06,03,01,24,13.30
2014,06,03,01,25,13.30
2014,06,03,01,26,13.30
2014,06,03,01,27,13.30
2014,06,03,01,28,13.30
2014,06,03,01,29,13.30
2014,06,03,01,30,13.30
2014,06,03,01,31,13.30
2014,06,03,01,32,13.30
2014,06,03,01,33,13.30
2014,06,03,01,34,13.30
2014,06,03,01,35,13.30
2014,06,03,01,36,13.30
2014,06,03,01,37,13.30
2014,06,03,01,38,13.30
2014,06,03,01,39,13.30
2014,06,03,01,40,13.30
2014,06,03,01,41,13.30
2014,06,03,01,42,13.30
2014,06,03,01,43,13.30
2014,06,03,01,44,13.30
2014,06,03,01,45,13.20
2014,06,03,01,46,13.20
2014,06,03,01,47,13.20
2014,06,03,01,48,13.20
2014,06,03,01,49,13.20
2014,06,03,01,50,13.20
2014,06,03,01,51,13.10
2014,06,03,01,52,13.10
2014,06,03,01,53,13.10
2014,06,03,01,54,13.10
2014,06,03,01,55,13.10
2014,06,03,01,56,13.10
2014,06,03,01,57,13.10
2014,06,03,01,58,13.10
2014,06,03,01,59,13.10
2014,06,03,02,00,13.10
2014,06,03,02,01,13.10
2014,06,03,02,02,13.10
2014,06,03,02,03,13.10
2014,06,03,02,04,13.10
2014,06,03,02,05,13.00
2014,06,03,02,06,13.00
2014,06,03,02,07,13.00
2014,06,03,02,08,13.00
2014,06,03,02,09,13.00
2014,06,03,02,10,13.00
2014,06,03,02,11,12.90
2014,06,03,02,12,12.90
2014,06,03,02,13,12.90
2014,06,03,02,14,12.90
2014,06,03,02,15,12.80
2014,06,03,02,16,12.80
2014,06,03,02,17,12.80
2014,06,03,02,18,12.80
2014,06,03,02,19,12.80
2014,06,03,02,20,12.80
2014,06,03,02,21,12.70
2014,06,03,02,22,12.70
2014,06,03,02,23,12.70
2014,06,03,02,24,12.60
2014,06,03,02,25,12.60
2014,06,03,02,26,12.60
2014,06,03,02,27,12.60
2014,06,03,02,28,12.60
2014,06,03,02,29,12.50
2014,06,03,02,30,12.50
2014,06,03,02,31,12.50
2014,06,03,02,32,12.50
2014,06,03,02,33,12.50
2014,06,03,02,34,12.50
2014,06,03,02,35,12.50
2014,06,03,02,36,12.50
2014,06,03,02,37,12.50
2014,06,03,02,38,12.50
2014,06,03,02,39,12.40
2014,06,03,02,40,12.40
2014,06,03,02,41,12.40
2014,06,03,02,42,12.30
2014,06,03,02,43,12.30
2014,06,03,02,44,12.30
2014,06,03,02,45,12.30
2014,06,03,02,46,12.30
2014,06,03,02,47,12.20
2014,06,03,02,48,12.20
2014,06,03,02,49,12.20
2014,06,03,02,50,12.20
2014,06,03,02,51,12.20
2014,06,03,02,52,12.20
2014,06,03,02,53,12.30
2014,06,03,02,54,12.30
2014,06,03,02,55,12.30
2014,06,03,02,56,12.30
2014,06,03,02,57,12.30
2014,06,03,02,58,12.30
2014,06,03,02,59,12.30
2014,06,03,03,00,12.30
2014,06,03,03,01,12.30
2014,06,03,03,02,12.30
2014,06,03,03,03,12.30
2014,06,03,03,04,12.30
2014,06,03,03,05,12.30
2014,06,03,03,06,12.30
2014,06,03,03,07,12.30
2014,06,03,03,08,12.30
2014,06,03,03,09,12.30
2014,06,03,03,10,12.30
2014,06,03,03,11,12.30
2014,06,03,03,12,12.30
2014,06,03,03,13,12.30
2014,06,03,03,14,12.30
2014,06,03,03,15,12.30
2014,06,03,03,16,12.30
2014,06,03,03,17,12.30
2014,06,03,03,18,12.30
2014,06,03,03,19,12.30
2014,06,03,03,20,12.30
2014,06,03,03,21,12.30
2014,06,03,03,22,12.30
2014,06,03,03,23,12.30
2014,06,03,03,24,12.30
2014,06,03,03,25,12.30
2014,06,03,03,26,12.30
2014,06,03,03,27,12.30
2014,06,03,03,28,12.30
2014,06,03,03,29,12.30
2014,06,03,03,30,12.30
2014,06,03,03,31,12.30
2014,06,03,03,32,12.20
2014,06,03,03,33,12.20
2014,06,03,03,34,12.20
2014,06,03,03,35,12.20
2014,06,03,03,36,12.20
2014,06,03,03,37,12.20
2014,06,03,03,38,12.20
2014,06,03,03,39,12.20
2014,06,03,03,40,12.20
2014,06,03,03,41,12.20
2014,06,03,03,42,12.20
2014,06,03,03,43,12.20
2014,06,03,03,44,12.20
2014,06,03,03,45,12.20
2014,06,03,03,46,12.20
2014,06,03,03,47,12.20
2014,06,03,03,48,12.20
2014,06,03,03,49,12.20
2014,06,03,03,50,12.20
2014,06,03,03,51,12.20
2014,06,03,03,52,12.20
2014,06,03,03,53,12.20
2014,06,03,03,54,12.20
2014,06,03,03,55,12.20
2014,06,03,03,56,12.20
2014,06,03,03,57,12.20
2014,06,03,03,58,12.20
2014,06,03,03,59,12.20
2014,06,03,04,00,12.20
2014,06,03,04,01,12.20
2014,06,03,04,02,12.20
2014,06,03,04,03,12.20
2014,06,03,04,04,12.10
2014,06,03,04,05,12.10
2014,06,03,04,06,12.10
2014,06,03,04,07,12.10
2014,06,03,04,08,12.10
2014,06,03,04,09,12.10
2014,06,03,04,10,12.10
2014,06,03,04,11,12.10
2014,06,03,04,12,12.10
2014,06,03,04,13,12.10
2014,06,03,04,14,12.10
2014,06,03,04,15,12.10
2014,06,03,04,16,12.10
2014,06,03,04,17,12.00
2014,06,03,04,18,12.00
2014,06,03,04,19,12.00
2014,06,03,04,20,12.00
2014,06,03,04,21,11.90
2014,06,03,04,22,11.90
2014,06,03,04,23,11.90
2014,06,03,04,24,11.90
2014,06,03,04,25,11.90
2014,06,03,04,26,11.90
2014,06,03,04,27,11.90
2014,06,03,04,28,11.90
2014,06,03,04,29,11.90
2014,06,03,04,30,11.90
2014,06,03,04,31,11.90
2014,06,03,04,32,11.90
2014,06,03,04,33,11.80
2014,06,03,04,34,11.80
2014,06,03,04,35,11.80
2014,06,03,04,36,11.80
2014,06,03,04,37,11.80
2014,06,03,04,38,11.80
2014,06,03,04,39,11.80
2014,06,03,04,40,11.80
2014,06,03,04,41,11.80
2014,06,03,04,42,11.80
2014,06,03,04,43,11.80
2014,06,03,04,44,11.80
2014,06,03,04,45,11.80
2014,06,03,04,46,11.80
2014,06,03,04,47,11.80
2014,06,03,04,48,11.70
2014,06,03,04,49,11.60
2014,06,03,04,50,11.60
2014,06,03,04,51,11.60
2014,06,03,04,52,11.60
2014,06,03,04,53,11.60
2014,06,03,04,54,11.60
2014,06,03,04,55,11.40
2014,06,03,04,56,11.40
2014,06,03,04,57,11.40
2014,06,03,04,58,11.40
2014,06,03,04,59,11.40
2014,06,03,05,00,11.30
2014,06,03,05,01,11.30
2014,06,03,05,02,11.30
2014,06,03,05,03,11.30
2014,06,03,05,04,11.30
2014,06,03,05,05,11.30
2014,06,03,05,06,11.30
2014,06,03,05,07,11.30
2014,06,03,05,08,11.30
2014,06,03,05,09,11.30
2014,06,03,05,10,11.20
2014,06,03,05,11,11.20
2014,06,03,05,12,11.20
2014,06,03,05,13,11.20
2014,06,03,05,14,11.30
2014,06,03,05,15,11.30
2014,06,03,05,16,11.30
2014,06,03,05,17,11.30
2014,06,03,05,18,11.30
2014,06,03,05,19,11.30
2014,06,03,05,20,11.40
2014,06,03,05,21,11.40
2014,06,03,05,22,11.40
2014,06,03,05,23,11.40
2014,06,03,05,24,11.40
2014,06,03,05,25,11.40
2014,06,03,05,26,11.40
2014,06,03,05,27,11.60
2014,06,03,05,28,11.60
2014,06,03,05,29,11.40
2014,06,03,05,30,11.40
2014,06,03,05,31,11.40
2014,06,03,05,32,11.40
2014,06,03,05,33,11.40
2014,06,03,05,34,11.40
2014,06,03,05,35,11.40
2014,06,03,05,36,11.40
2014,06,03,05,37,11.60
2014,06,03,05,38,11.40
2014,06,03,05,39,11.40
2014,06,03,05,40,11.40
2014,06,03,05,41,11.40
2014,06,03,05,42,11.40
2014,06,03,05,43,11.60
2014,06,03,05,44,11.60
2014,06,03,05,45,11.60
2014,06,03,05,46,11.60
2014,06,03,05,47,11.60
2014,06,03,05,48,11.60
2014,06,03,05,49,11.60
2014,06,03,05,50,11.60
2014,06,03,05,51,11.60
2014,06,03,05,52,11.40
2014,06,03,05,53,11.40
2014,06,03,05,54,11.40
2014,06,03,05,55,11.40
2014,06,03,05,56,11.40
2014,06,03,05,57,11.40
2014,06,03,05,58,11.30
2014,06,03,05,59,11.30
2014,06,03,06,00,11.20
2014,06,03,06,01,11.20
2014,06,03,06,02,11.20
2014,06,03,06,03,11.20
2014,06,03,06,04,11.20
2014,06,03,06,05,11.20
2014,06,03,06,06,11.20
2014,06,03,06,07,11.20
2014,06,03,06,08,11.20
2014,06,03,06,09,11.20
2014,06,03,06,10,11.20
2014,06,03,06,11,11.10
2014,06,03,06,12,11.10
2014,06,03,06,13,11.10
2014,06,03,06,14,11.10
2014,06,03,06,15,11.10
2014,06,03,06,16,11.10
2014,06,03,06,17,11.10
2014,06,03,06,18,11.20
2014,06,03,06,19,11.20
2014,06,03,06,20,11.20
2014,06,03,06,21,11.30
2014,06,03,06,22,11.30
2014,06,03,06,23,11.30
2014,06,03,06,24,11.40
2014,06,03,06,25,11.40
2014,06,03,06,26,11.40
2014,06,03,06,27,11.40
2014,06,03,06,28,11.40
2014,06,03,06,29,11.40
2014,06,03,06,30,11.40
2014,06,03,06,31,11.40
2014,06,03,06,32,11.60
2014,06,03,06,33,11.60
2014,06,03,06,34,11.60
2014,06,03,06,35,11.60
2014,06,03,06,36,11.60
2014,06,03,06,37,11.70
2014,06,03,06,38,11.70
2014,06,03,06,39,11.80
2014,06,03,06,40,11.80
2014,06,03,06,41,11.80
2014,06,03,06,42,11.80
2014,06,03,06,43,11.80
2014,06,03,06,44,11.90
2014,06,03,06,45,11.90
2014,06,03,06,46,12.00
2014,06,03,06,47,12.00
2014,06,03,06,48,12.00
2014,06,03,06,49,12.10
2014,06,03,06,50,12.10
2014,06,03,06,51,12.20
2014,06,03,06,52,12.30
2014,06,03,06,53,12.30
2014,06,03,06,54,12.30
2014,06,03,06,55,12.30
2014,06,03,06,56,12.30
2014,06,03,06,57,12.30
2014,06,03,06,58,12.30
2014,06,03,06,59,12.40
2014,06,03,07,00,12.40
2014,06,03,07,01,12.50
2014,06,03,07,02,12.50
2014,06,03,07,03,12.50
2014,06,03,07,04,12.50
2014,06,03,07,05,12.60
2014,06,03,07,06,12.50
2014,06,03,07,07,12.60
2014,06,03,07,08,12.60
2014,06,03,07,09,12.70
2014,06,03,07,10,12.70
2014,06,03,07,11,12.70
2014,06,03,07,12,12.60
2014,06,03,07,13,12.70
2014,06,03,07,14,12.70
2014,06,03,07,15,12.80
2014,06,03,07,16,12.80
2014,06,03,07,17,12.80
2014,06,03,07,18,12.70
2014,06,03,07,19,12.70
2014,06,03,07,20,12.70
2014,06,03,07,21,12.70
2014,06,03,07,22,12.70
2014,06,03,07,23,12.70
2014,06,03,07,24,12.70
2014,06,03,07,25,12.70
2014,06,03,07,26,12.70
2014,06,03,07,27,12.80
2014,06,03,07,28,12.80
2014,06,03,07,29,12.80
2014,06,03,07,30,12.80
2014,06,03,07,31,12.80
2014,06,03,07,32,12.80
2014,06,03,07,33,12.80
2014,06,03,07,34,12.80
2014,06,03,07,35,12.90
2014,06,03,07,36,12.90
2014,06,03,07,37,12.90
2014,06,03,07,38,13.00
2014,06,03,07,39,13.00
2014,06,03,07,40,13.10
2014,06,03,07,41,13.10
2014,06,03,07,42,13.20
2014,06,03,07,43,13.20
2014,06,03,07,44,13.30
2014,06,03,07,45,13.30
2014,06,03,07,46,13.30
2014,06,03,07,47,13.30
2014,06,03,07,48,13.30
2014,06,03,07,49,13.40
2014,06,03,07,50,13.50
2014,06,03,07,51,13.50
2014,06,03,07,52,13.60
2014,06,03,07,53,13.70
2014,06,03,07,54,13.80
2014,06,03,07,55,13.90
2014,06,03,07,56,14.10
2014,06,03,07,57,14.20
2014,06,03,07,58,14.20
2014,06,03,07,59,14.40
2014,06,03,08,00,14.50
2014,06,03,08,01,14.60
2014,06,03,08,02,14.70
2014,06,03,08,03,14.80
2014,06,03,08,04,14.80
2014,06,03,08,05,14.90
2014,06,03,08,06,15.00
2014,06,03,08,07,15.10
2014,06,03,08,08,15.10
2014,06,03,08,09,15.10
2014,06,03,08,10,15.10
2014,06,03,08,11,15.10
2014,06,03,08,12,15.00
2014,06,03,08,13,15.10
2014,06,03,08,14,15.10
2014,06,03,08,15,15.10
2014,06,03,08,16,15.20
2014,06,03,08,17,15.20
2014,06,03,08,18,15.30
2014,06,03,08,19,15.30
2014,06,03,08,20,15.30
2014,06,03,08,21,15.30
2014,06,03,08,22,15.40
2014,06,03,08,23,15.40
2014,06,03,08,24,15.40
2014,06,03,08,25,15.40
2014,06,03,08,26,15.40
2014,06,03,08,27,15.40
2014,06,03,08,28,15.40
2014,06,03,08,29,15.40
2014,06,03,08,30,15.40
2014,06,03,08,31,15.40
2014,06,03,08,32,15.40
2014,06,03,08,33,15.50
2014,06,03,08,34,15.50
2014,06,03,08,35,15.50
2014,06,03,08,36,15.60
2014,06,03,08,37,15.70
2014,06,03,08,38,15.70
2014,06,03,08,39,15.70
2014,06,03,08,40,15.80
2014,06,03,08,41,15.80
2014,06,03,08,42,15.80
2014,06,03,08,43,15.80
2014,06,03,08,44,15.80
2014,06,03,08,45,15.80
2014,06,03,08,46,15.80
2014,06,03,08,47,15.80
2014,06,03,08,48,15.80
2014,06,03,08,49,15.80
2014,06,03,08,50,15.80
2014,06,03,08,51,15.80
2014,06,03,08,52,15.80
2014,06,03,08,53,15.80
2014,06,03,08,54,15.80
2014,06,03,08,55,15.90
2014,06,03,08,56,15.90
2014,06,03,08,57,15.90
2014,06,03,08,58,16.10
2014,06,03,08,59,16.10
2014,06,03,09,00,16.20
2014,06,03,09,01,16.30
2014,06,03,09,02,16.40
2014,06,03,09,03,16.40
2014,06,03,09,04,16.40
2014,06,03,09,05,16.60
2014,06,03,09,06,16.60
2014,06,03,09,07,16.60
2014,06,03,09,08,16.60
2014,06,03,09,09,16.70
2014,06,03,09,10,16.70
2014,06,03,09,11,16.70
2014,06,03,09,12,16.70
2014,06,03,09,13,16.70
2014,06,03,09,14,16.80
2014,06,03,09,15,16.80
2014,06,03,09,16,16.80
2014,06,03,09,17,16.90
2014,06,03,09,18,16.90
2014,06,03,09,19,17.00
2014,06,03,09,20,17.10
2014,06,03,09,21,17.10
2014,06,03,09,22,17.20
2014,06,03,09,23,17.30
2014,06,03,09,24,17.30
2014,06,03,09,25,17.20
2014,06,03,09,26,17.20
2014,06,03,09,27,17.10
2014,06,03,09,28,17.10
2014,06,03,09,29,17.00
2014,06,03,09,30,16.90
2014,06,03,09,31,16.90
2014,06,03,09,32,16.90
2014,06,03,09,33,16.90
2014,06,03,09,34,16.90
2014,06,03,09,35,16.90
2014,06,03,09,36,16.90
2014,06,03,09,37,17.00
2014,06,03,09,38,17.00
2014,06,03,09,39,17.10
2014,06,03,09,40,17.10
2014,06,03,09,41,17.10
2014,06,03,09,42,17.10
2014,06,03,09,43,17.10
2014,06,03,09,44,17.10
2014,06,03,09,45,17.10
2014,06,03,09,46,17.00
2014,06,03,09,47,17.10
2014,06,03,09,48,17.10
2014,06,03,09,49,17.20
2014,06,03,09,50,17.30
2014,06,03,09,51,17.30
2014,06,03,09,52,17.30
2014,06,03,09,53,17.40
2014,06,03,09,54,17.50
2014,06,03,09,55,17.60
2014,06,03,09,56,17.60
2014,06,03,09,57,17.70
2014,06,03,09,58,17.80
2014,06,03,09,59,17.90
2014,06,03,10,00,17.90
2014,06,03,10,01,17.90
2014,06,03,10,02,17.90
2014,06,03,10,03,18.10
2014,06,03,10,04,18.10
2014,06,03,10,05,18.20
2014,06,03,10,06,18.20
2014,06,03,10,07,18.30
2014,06,03,10,08,18.30
2014,06,03,10,09,18.30
2014,06,03,10,10,18.30
2014,06,03,10,11,18.30
2014,06,03,10,12,18.40
2014,06,03,10,13,18.40
2014,06,03,10,14,18.50
2014,06,03,10,15,18.60
2014,06,03,10,16,18.70
2014,06,03,10,17,18.70
2014,06,03,10,18,18.80
2014,06,03,10,19,18.80
2014,06,03,10,20,18.80
2014,06,03,10,21,18.90
2014,06,03,10,22,18.90
2014,06,03,10,23,18.90
2014,06,03,10,24,19.10
2014,06,03,10,25,19.10
2014,06,03,10,26,19.20
2014,06,03,10,27,19.30
2014,06,03,10,28,19.40
2014,06,03,10,29,19.40
2014,06,03,10,30,19.40
2014,06,03,10,31,19.40
2014,06,03,10,32,19.50
2014,06,03,10,33,19.50
2014,06,03,10,34,19.40
2014,06,03,10,35,19.40
2014,06,03,10,36,19.30
2014,06,03,10,37,19.20
2014,06,03,10,38,19.10
2014,06,03,10,39,19.10
2014,06,03,10,40,19.10
2014,06,03,10,41,19.10
2014,06,03,10,42,19.10
2014,06,03,10,43,19.10
2014,06,03,10,44,19.10
2014,06,03,10,45,19.10
2014,06,03,10,46,19.10
2014,06,03,10,47,19.10
2014,06,03,10,48,19.10
2014,06,03,10,49,19.10
2014,06,03,10,50,19.20
2014,06,03,10,51,19.40
2014,06,03,10,52,19.50
2014,06,03,10,53,19.60
2014,06,03,10,54,19.70
2014,06,03,10,55,19.80
2014,06,03,10,56,19.90
2014,06,03,10,57,19.90
2014,06,03,10,58,19.90
2014,06,03,10,59,19.90
2014,06,03,11,00,19.90
2014,06,03,11,01,19.90
2014,06,03,11,02,20.10
2014,06,03,11,03,20.10
2014,06,03,11,04,20.20
2014,06,03,11,05,20.20
2014,06,03,11,06,20.20
2014,06,03,11,07,20.30
2014,06,03,11,08,20.40
2014,06,03,11,09,20.40
2014,06,03,11,10,20.50
2014,06,03,11,11,20.60
2014,06,03,11,12,20.70
2014,06,03,11,13,20.80
2014,06,03,11,14,20.80
2014,06,03,11,15,20.80
2014,06,03,11,16,20.80
2014,06,03,11,17,20.60
2014,06,03,11,18,20.30
2014,06,03,11,19,20.10
2014,06,03,11,20,19.90
2014,06,03,11,21,19.80
2014,06,03,11,22,19.70
2014,06,03,11,23,19.60
2014,06,03,11,24,19.40
2014,06,03,11,25,19.10
2014,06,03,11,26,18.90
2014,06,03,11,27,18.70
2014,06,03,11,28,18.50
2014,06,03,11,29,18.30
2014,06,03,11,30,18.30
2014,06,03,11,31,18.30
2014,06,03,11,32,18.30
2014,06,03,11,33,18.40
2014,06,03,11,34,18.40
2014,06,03,11,35,18.40
2014,06,03,11,36,18.40
2014,06,03,11,37,18.40
2014,06,03,11,38,18.40
2014,06,03,11,39,18.50
2014,06,03,11,40,18.50
2014,06,03,11,41,18.60
2014,06,03,11,42,18.60
2014,06,03,11,43,18.60
2014,06,03,11,44,18.60
2014,06,03,11,45,18.70
2014,06,03,11,46,18.70
2014,06,03,11,47,18.70
2014,06,03,11,48,18.80
2014,06,03,11,49,18.70
2014,06,03,11,50,18.70
2014,06,03,11,51,18.70
2014,06,03,11,52,18.70
2014,06,03,11,53,18.70
2014,06,03,11,54,18.80
2014,06,03,11,55,18.90
2014,06,03,11,56,18.90
2014,06,03,11,57,19.10
2014,06,03,11,58,19.10
2014,06,03,11,59,19.10
2014,06,03,12,00,19.20
2014,06,03,12,01,19.40
2014,06,03,12,02,19.60
2014,06,03,12,03,19.80
2014,06,03,12,04,19.80
2014,06,03,12,05,19.90
2014,06,03,12,06,20.10
2014,06,03,12,07,20.20
2014,06,03,12,08,20.30
2014,06,03,12,09,20.50
2014,06,03,12,10,20.50
2014,06,03,12,11,20.60
2014,06,03,12,12,20.70
2014,06,03,12,13,20.80
2014,06,03,12,14,20.90
2014,06,03,12,15,20.90
2014,06,03,12,16,21.00
2014,06,03,12,17,21.10
2014,06,03,12,18,21.10
2014,06,03,12,19,21.10
2014,06,03,12,20,21.10
2014,06,03,12,21,21.20
2014,06,03,12,22,21.30
2014,06,03,12,23,21.30
2014,06,03,12,24,21.30
2014,06,03,12,25,21.30
2014,06,03,12,26,21.30
2014,06,03,12,27,21.30
2014,06,03,12,28,21.40
2014,06,03,12,29,21.60
2014,06,03,12,30,21.60
2014,06,03,12,31,21.60
2014,06,03,12,32,21.70
2014,06,03,12,33,21.70
2014,06,03,12,34,21.70
2014,06,03,12,35,21.70
2014,06,03,12,36,21.70
2014,06,03,12,37,21.80
2014,06,03,12,38,21.90
2014,06,03,12,39,21.90
2014,06,03,12,40,22.00
2014,06,03,12,41,22.10
2014,06,03,12,42,22.20
2014,06,03,12,43,22.30
2014,06,03,12,44,22.30
2014,06,03,12,45,22.40
2014,06,03,12,46,22.40
2014,06,03,12,47,22.40
2014,06,03,12,48,22.50
2014,06,03,12,49,22.50
2014,06,03,12,50,22.50
2014,06,03,12,51,22.60
2014,06,03,12,52,22.60
2014,06,03,12,53,22.70
2014,06,03,12,54,22.70
2014,06,03,12,55,22.80
2014,06,03,12,56,22.90
2014,06,03,12,57,22.90
2014,06,03,12,58,22.90
2014,06,03,12,59,22.80
2014,06,03,13,00,22.80
2014,06,03,13,01,22.70
2014,06,03,13,02,22.70
2014,06,03,13,03,22.80
2014,06,03,13,04,22.90
2014,06,03,13,05,22.90
2014,06,03,13,06,22.90
2014,06,03,13,07,22.90
2014,06,03,13,08,22.90
2014,06,03,13,09,22.80
2014,06,03,13,10,22.80
2014,06,03,13,11,22.80
2014,06,03,13,12,22.80
2014,06,03,13,13,22.80
2014,06,03,13,14,22.70
2014,06,03,13,15,22.60
2014,06,03,13,16,22.50
2014,06,03,13,17,22.40
2014,06,03,13,18,22.40
2014,06,03,13,19,22.30
2014,06,03,13,20,22.30
2014,06,03,13,21,22.40
2014,06,03,13,22,22.50
2014,06,03,13,23,22.60
2014,06,03,13,24,22.50
2014,06,03,13,25,22.50
2014,06,03,13,26,22.50
2014,06,03,13,27,22.60
2014,06,03,13,28,22.60
2014,06,03,13,29,22.70
2014,06,03,13,30,22.80
2014,06,03,13,31,22.80
2014,06,03,13,32,22.80
2014,06,03,13,33,22.90
2014,06,03,13,34,22.90
2014,06,03,13,35,23.10
2014,06,03,13,36,23.20
2014,06,03,13,37,23.30
2014,06,03,13,38,23.30
2014,06,03,13,39,23.30
2014,06,03,13,40,23.40
2014,06,03,13,41,23.60
2014,06,03,13,42,23.60
2014,06,03,13,43,23.60
2014,06,03,13,44,23.40
2014,06,03,13,45,23.40
2014,06,03,13,46,23.60
2014,06,03,13,47,23.70
2014,06,03,13,48,23.70
2014,06,03,13,49,23.70
2014,06,03,13,50,23.70
2014,06,03,13,51,23.70
2014,06,03,13,52,23.70
2014,06,03,13,53,23.70
2014,06,03,13,54,23.70
2014,06,03,13,55,23.60
2014,06,03,13,56,23.40
2014,06,03,13,57,23.40
2014,06,03,13,58,23.40
2014,06,03,13,59,23.30
2014,06,03,14,00,23.30
2014,06,03,14,01,23.30
2014,06,03,14,02,23.20
2014,06,03,14,03,22.90
2014,06,03,14,04,22.80
2014,06,03,14,05,22.70
2014,06,03,14,06,22.80
2014,06,03,14,07,22.90
2014,06,03,14,08,22.90
2014,06,03,14,09,22.90
2014,06,03,14,10,23.20
2014,06,03,14,11,23.30
2014,06,03,14,12,23.30
2014,06,03,14,13,23.40
2014,06,03,14,14,23.40
2014,06,03,14,15,23.60
2014,06,03,14,16,23.70
2014,06,03,14,17,23.70
2014,06,03,14,18,23.90
2014,06,03,14,19,23.90
2014,06,03,14,20,24.10
2014,06,03,14,21,24.20
2014,06,03,14,22,24.30
2014,06,03,14,23,24.40
2014,06,03,14,24,24.50
2014,06,03,14,25,24.70
2014,06,03,14,26,24.70
2014,06,03,14,27,24.90
2014,06,03,14,28,25.00
2014,06,03,14,29,25.00
2014,06,03,14,30,25.00
2014,06,03,14,31,25.10
2014,06,03,14,32,25.10
2014,06,03,14,33,25.10
2014,06,03,14,34,25.10
2014,06,03,14,35,25.10
2014,06,03,14,36,25.20
2014,06,03,14,37,25.20
2014,06,03,14,38,25.20
2014,06,03,14,39,25.30
2014,06,03,14,40,25.30
2014,06,03,14,41,25.30
2014,06,03,14,42,25.20
2014,06,03,14,43,25.10
2014,06,03,14,44,25.10
2014,06,03,14,45,25.10
2014,06,03,14,46,25.10
2014,06,03,14,47,25.00
2014,06,03,14,48,25.10
2014,06,03,14,49,25.10
2014,06,03,14,50,25.10
2014,06,03,14,51,25.00
2014,06,03,14,52,24.90
2014,06,03,14,53,24.80
2014,06,03,14,54,24.70
2014,06,03,14,55,24.50
2014,06,03,14,56,24.50
2014,06,03,14,57,24.40
2014,06,03,14,58,24.20
2014,06,03,14,59,24.10
2014,06,03,15,00,24.10
2014,06,03,15,01,24.20
2014,06,03,15,02,24.30
2014,06,03,15,03,24.40
2014,06,03,15,04,24.50
2014,06,03,15,05,24.60
2014,06,03,15,06,24.20
2014,06,03,15,07,24.10
2014,06,03,15,08,24.10
2014,06,03,15,09,23.80
2014,06,03,15,10,23.80
2014,06,03,15,11,23.80
2014,06,03,15,12,23.70
2014,06,03,15,13,23.70
2014,06,03,15,14,23.70
2014,06,03,15,15,23.60
2014,06,03,15,16,23.60
2014,06,03,15,17,23.60
2014,06,03,15,18,23.60
2014,06,03,15,19,23.60
2014,06,03,15,20,23.40
2014,06,03,15,21,23.30
2014,06,03,15,22,23.30
2014,06,03,15,23,23.20
2014,06,03,15,24,23.10
2014,06,03,15,25,22.90
2014,06,03,15,26,22.90
2014,06,03,15,27,22.90
2014,06,03,15,28,22.90
2014,06,03,15,29,22.90
2014,06,03,15,30,22.90
2014,06,03,15,31,22.90
2014,06,03,15,32,23.10
2014,06,03,15,33,23.20
2014,06,03,15,34,23.20
2014,06,03,15,35,23.10
2014,06,03,15,36,22.90
2014,06,03,15,37,22.90
2014,06,03,15,38,23.10
2014,06,03,15,39,23.10
2014,06,03,15,40,22.90
2014,06,03,15,41,22.90
2014,06,03,15,42,23.10
2014,06,03,15,43,23.10
2014,06,03,15,44,23.30
2014,06,03,15,45,23.30
2014,06,03,15,46,23.30
2014,06,03,15,47,23.20
2014,06,03,15,48,23.20
2014,06,03,15,49,23.20
2014,06,03,15,50,23.20
2014,06,03,15,51,23.30
2014,06,03,15,52,23.30
2014,06,03,15,53,23.30
2014,06,03,15,54,23.40
2014,06,03,15,55,23.40
2014,06,03,15,56,23.60
2014,06,03,15,57,23.70
2014,06,03,15,58,23.70
2014,06,03,15,59,23.80
2014,06,03,16,00,23.90
2014,06,03,16,01,23.80
2014,06,03,16,02,23.70
2014,06,03,16,03,23.70
2014,06,03,16,04,23.70
2014,06,03,16,05,23.70
2014,06,03,16,06,23.70
2014,06,03,16,07,23.70
2014,06,03,16,08,23.70
2014,06,03,16,09,23.60
2014,06,03,16,10,23.40
2014,06,03,16,11,23.30
2014,06,03,16,12,23.30
2014,06,03,16,13,23.30
2014,06,03,16,14,23.20
2014,06,03,16,15,23.20
2014,06,03,16,16,23.30
2014,06,03,16,17,23.30
2014,06,03,16,18,23.30
2014,06,03,16,19,23.30
2014,06,03,16,20,23.40
2014,06,03,16,21,23.60
2014,06,03,16,22,23.40
2014,06,03,16,23,23.30
2014,06,03,16,24,23.30
2014,06,03,16,25,23.40
2014,06,03,16,26,23.40
2014,06,03,16,27,23.40
2014,06,03,16,28,23.30
2014,06,03,16,29,23.30
2014,06,03,16,30,23.30
2014,06,03,16,31,23.30
2014,06,03,16,32,23.40
2014,06,03,16,33,23.60
2014,06,03,16,34,23.60
2014,06,03,16,35,23.60
2014,06,03,16,36,23.60
2014,06,03,16,37,23.60
2014,06,03,16,38,23.70
2014,06,03,16,39,23.70
2014,06,03,16,40,23.70
2014,06,03,16,41,23.70
2014,06,03,16,42,23.70
2014,06,03,16,43,23.70
2014,06,03,16,44,23.70
2014,06,03,16,45,23.70
2014,06,03,16,46,23.70
2014,06,03,16,47,23.70
2014,06,03,16,48,23.70
2014,06,03,16,49,23.60
2014,06,03,16,50,23.60
2014,06,03,16,51,23.40
2014,06,03,16,52,23.30
2014,06,03,16,53,23.30
2014,06,03,16,54,23.20
2014,06,03,16,55,23.10
2014,06,03,16,56,23.10
2014,06,03,16,57,23.10
2014,06,03,16,58,22.90
2014,06,03,16,59,22.90
2014,06,03,17,00,22.90
2014,06,03,17,01,22.90
2014,06,03,17,02,23.10
2014,06,03,17,03,23.30
2014,06,03,17,04,23.30
2014,06,03,17,05,23.40
2014,06,03,17,06,23.40
2014,06,03,17,07,23.30
2014,06,03,17,08,23.30
2014,06,03,17,09,23.20
2014,06,03,17,10,23.10
2014,06,03,17,11,22.90
2014,06,03,17,12,22.90
2014,06,03,17,13,22.90
2014,06,03,17,14,22.80
2014,06,03,17,15,22.60
2014,06,03,17,16,22.50
2014,06,03,17,17,22.40
2014,06,03,17,18,22.30
2014,06,03,17,19,22.20